Regional Weather Roundup
Issued by NWS

Home | Current Version | Previous Version | Text Only | Print | Product List | Glossary On
Versions: 1 2 3 4 5 6 7 8 9 10 11 12 13 14 15 16 17 18 19 20 21 22 23 24 25 26 27 28 29 30 31 32 33 34 35 36 37 38 39 40 41 42 43 44 45 46 47 48 49 50
000
ASUS44 KLIX 230112
RWRLA
LOUISIANA WEATHER ROUNDUP
NATIONAL WEATHER SERVICE NEW ORLEANS LA
800 PM CDT SAT APR 22 2017

NOTE: "FAIR" INDICATES FEW OR NO CLOUDS BELOW 12,000 FEET WITH NO
      SIGNIFICANT WEATHER AND/OR OBSTRUCTIONS TO VISIBILITY.
      SKY/WX - SKY CONDITION AND SIGNIFICANT WEATHER.
      TMP - AIR TEMPERATURE.    DP   - DEWPOINT TEMPERATURE.
      RH  - RELATIVE HUMIDITY.  PRES - PRESSURE.
      HX  - HEAT INDEX.         WCI  - WIND CHILL INDEX.

*  THESE STATIONS ARE NOT NWS OR FAA STATIONS AND ARE NOT UNDER
   NWS QUALITY CONTROL.

LAZ040-048-061>063-065-066-069-230200-
SOUTHEAST LOUISIANA

CITY           SKY/WX    TMP DP  RH WIND       PRES   REMARKS
N.O. INTL ARPT CLOUDY    78  70  76 SW6       29.83S
N.O. LAKEFRONT MOCLDY    80  71  74 S14       29.84S
N.O. DOWNTOWN*   N/A     81  70  69 S8          N/A
RESERVE*       NOT AVBL
SLIDELL        PTCLDY    79  69  71 S9        29.83S
BATON ROUGE    TSTM      79  69  71 SW13      29.81F
BOOTHVILLE     PTCLDY    76  69  79 SW12      29.88R
BELLE CHASSE   CLOUDY   N/A N/A N/A SW13      29.85R
BOGALUSA*      NOT AVBL
GALLIANO*      CLEAR     76  67  73 SW9       29.86F
NEW ROADS*     CLOUDY    74  67  80 NW16G28   29.85R THUNDER
GONZALES*      FAIR      75  70  83 SW5       29.83F
HAMMOND*       MOCLDY    77  66  69 S5        29.82F
HOUMA*         CLEAR     75  69  81 SW6       29.86S
PORT FOURCHON* CLEAR     77  68  73 SW9       29.88S

$$

LAZ041-044-053-054-230200-
SOUTHWEST LOUISIANA

CITY           SKY/WX    TMP DP  RH WIND       PRES   REMARKS
LAKE CHARLES   CLOUDY    68  61  78 N16G26    29.91R
LAFAYETTE      HVY RAIN  77  72  84 NW12      29.86R
PATTERSON      PTCLDY    75  71  87 SW9       29.88R
SALT POINT       N/A     77  72  84 SW8       29.86R
NEW IBERIA     CLOUDY    78  68  71 SW12G20   29.85S
CHENAULT AIRPK NOT AVBL

$$

LAZ027-028-230200-
CENTRAL LOUISIANA

CITY           SKY/WX    TMP DP  RH WIND       PRES   REMARKS
FORT POLK      MOCLDY    61  55  82 NW15G21   29.95R HAZE
ALEXANDRIA INT CLOUDY    62  56  80 NW15G22   29.93R
ALEXANDRIA     CLOUDY    63  57  81 NW9G18    29.94R

$$

LAZ001-002-230200-
NORTHWEST LOUISIANA

CITY           SKY/WX    TMP DP  RH WIND       PRES   REMARKS
SHREVEPORT     CLOUDY    58  51  78 NW16      30.01R
BARKSDALE AFB  CLOUDY    58  50  75 NW17      30.00R
DTN SHREVEPORT CLOUDY    59  50  72 NW12G22   30.00R

$$

LAZ014-016-230200-
NORTHEAST LOUISIANA

CITY           SKY/WX    TMP DP  RH WIND       PRES   REMARKS
MONROE         LGT RAIN  61  59  93 NW9       29.96R
TALLULAH       CLOUDY    61  59  93 VRB5      29.93R

$$




USA.gov is the U.S. government's official web portal to all federal, state and local government web resources and services.